This demonstration page uses our WeatherBlox Daily Observations layout. Learn more.

Left ArrowRight Arrow

41.55636, -103.73856

Hourly Observations for June 18, 2019

Temp ( °F °C ) Dew Point ( °F °C ) Humidity (%) Winds ( mph kmh ) Pressure ( in mb ) Visibility ( mi km ) Precip ( " mm )
12:58 am 00:58 Cloudy with Light Showers 55 12.9 53 11.5 91 91 NE 9 15 30.03 1017 10 16 0.04 1.02
1:58 am 01:58 Cloudy with Light Rain 57 13.9 54 12.1 89 89 E 7 11 30.01 1016 10 16 0.06 1.52
2:58 am 02:58 Mostly Cloudy 57 13.9 55 13 94 94 ESE 10 17 30.01 1016 10 16 N/A
3:58 am 03:58 Mostly Cloudy 57 13.9 55 12.8 93 93 ESE 10 17 30.03 1017 10 16 N/A
4:58 am 04:58 Cloudy with Light Rain 55 12.7 53 11.5 92 92 ESE 8 13 30.03 1017 10 16 0.02 0.51
5:58 am 05:58 Mostly Cloudy 55 12.5 53 11.5 94 94 ESE 6 9 30.02 1017 10 16 0.02 0.51
6:58 am 06:58 Mostly Cloudy with Mist and Fog 54 12.3 53 11.6 96 96 N N/A 30.00 1016 1 1 N/A
7:58 am 07:58 Mostly Clear 53 11.7 52 11 96 96 N N/A 29.98 1015 9 14 N/A
8:58 am 08:58 Mostly Cloudy with Mist and Fog 53 11.8 52 11.2 96 96 SSW 7 11 29.98 1015 1 2 N/A
9:58 am 09:58 Mostly Cloudy with Patchy Fog 54 12.2 53 11.5 96 96 WSW 5 7 29.98 1015 1 2 N/A
10:58 am 10:58 Cloudy 54 12.2 53 11.6 96 96 N N/A 29.99 1016 7 11 N/A
11:58 am 11:58 Mostly Cloudy with Mist and Fog 53 11.9 52 11.3 96 96 N N/A 30.01 1016 6 10 N/A
12:58 pm 12:58 Cloudy 54 12.4 52 11.3 93 93 N N/A 30.02 1017 10 16 N/A
1:58 pm 13:58 Mostly Cloudy 55 12.5 53 11.5 94 94 ENE 5 7 30.01 1016 7 11 N/A
2:58 pm 14:58 Cloudy 56 13.3 53 11.7 90 90 N N/A 30.02 1017 10 16 N/A
3:58 pm 15:58 Cloudy 57 13.7 54 12.1 90 90 ESE 8 13 30.01 1016 10 16 N/A
4:58 pm 16:58 Cloudy 57 14 54 12 88 88 SE 7 11 30.02 1017 10 16 N/A
5:58 pm 17:58 Mostly Cloudy 60 15.3 55 12.5 84 84 ESE 7 11 29.99 1016 10 16 0.01 0.25
6:58 pm 18:58 Mostly Cloudy 61 16 55 12.5 80 80 SE 13 20 29.97 1015 10 16 N/A
7:58 pm 19:58 Mostly Cloudy 63 17.4 55 12.6 74 74 SE 8 13 29.95 1014 10 16 N/A
8:58 pm 20:58 Mostly Cloudy 62 16.8 53 11.4 71 71 S 5 7 29.94 1014 10 16 N/A
9:59 pm 21:59 Mostly Cloudy with Heavy Rain 57 14 54 12.4 90 90 WSW 9 15 29.96 1015 4 6 0.10 2.54
11:58 pm 23:58 Partly Cloudy 59 15.1 55 12.9 87 87 WSW 7 11 29.94 1014 10 16 N/A

Powered by AerisWeather